Location: Grundy Observatory
(40.0525°N, 76.3328°W)
Time: 18:24:54
(UTC-04:00)

Daily predictions for brighter satellites

Satellite Brightness Start Highest point End
(mag) Time Altitude Azimuth Time Altitude Azimuth Time Altitude Azimuth
ATLAS 2AS CENTAUR R/B 3.9 20:12:04 10° SSE 20:17:46 24° ESE 20:23:44 10° ENE
Cosmos 839 Rocket 4.1 20:12:13 10° S 20:18:22 55° ESE 20:24:24 10° NE
SL-16 R/B 3.0 20:15:03 10° SSE 20:19:49 29° ESE 20:24:37 10° NE
Cosmos 1092 Rocket 4.3 20:14:12 10° SSW 20:20:20 74° W 20:26:32 10° N
Cosmos 1441 Rocket 3.2 20:18:04 10° N 20:21:49 90° W 20:25:33 10° S
Intercosmos 25 Rocket 3.6 20:18:46 10° NNW 20:22:01 57° W 20:25:10 10° S
Meteor 1-20 Rocket 4.2 20:17:42 10° S 20:23:16 85° E 20:28:47 10° N
NOSS 3-1 (A) 3.7 20:18:36 10° SW 20:24:19 76° NW 20:30:47 10° NNE
Cosmos 1939 Rocket 4.2 20:21:28 10° ESE 20:24:37 23° ENE 20:27:45 10° NNE
Okean 1 3.4 20:22:01 10° N 20:25:57 59° E 20:29:53 10° SSE
Cosmos 1452 Rocket 3.6 20:22:33 10° S 20:27:44 61° ESE 20:32:57 10° NNE
Cosmos 405 Rocket 3.9 20:24:32 10° NNW 20:28:13 46° W 20:31:58 10° SSW
Cosmos 1536 4.3 20:27:32 10° SE 20:30:23 19° E 20:33:14 10° NE
Cosmos 1420 Rocket 4.3 20:26:13 10° S 20:31:04 44° ESE 20:35:59 10° NNE
Cosmos 1633 2.5 20:27:51 10° S 20:31:26 74° E 20:35:04 10° NNE
Lacrosse 5 rocket 1.1 20:28:14 10° NW 20:31:54 67° NE 20:35:43 10° SE
Cosmos 407 Rocket 3.8 20:27:28 10° NNW 20:32:49 74° WSW 20:38:06 10° S
S3M 4.3 20:28:57 10° N 20:34:59 47° ENE 20:41:03 10° SSE
YAOGAN 6 4.1 20:34:19 10° ESE 20:36:58 20° ENE 20:39:36 10° NNE
Cosmos 1553 Rocket 4.1 20:31:29 10° N 20:37:29 53° E 20:43:24 10° SSE
Cosmos 1782 Rocket 4.5 20:34:48 10° SSW 20:39:01 52° W 20:43:16 10° N
Cosmos 921 Rocket 3.6 20:35:29 10° SSW 20:39:37 60° WNW 20:43:46 10° N
Cosmos 2360 Rocket 3.5 20:39:53 10° SE 20:43:27 17° E 20:47:01 10° ENE
Helios 1B rocket 3.7 20:40:43 10° NE 20:43:50 21° E 20:46:56 10° SE
Cosmos 1980 Rocket 2.9 20:38:36 10° SW 20:44:08 59° WNW 20:49:41 10° NNE
Resurs 01 Rocket 1.7 20:40:35 10° SSE 20:45:02 85° WSW 20:49:32 10° NNW
Cosmos 1300 Rocket 4.3 20:42:32 10° SSE 20:46:18 30° E 20:50:05 10° NNE
Cosmos 676 Rocket 4.3 20:47:49 10° NNW 20:53:07 74° WSW 20:58:25 10° S
Tiangong 1 1.5 20:50:37 10° WNW 20:53:19 46° N 20:55:23 15° ENE
Cosmos 1023 Rocket 4.5 20:49:11 10° NNW 20:54:28 81° ENE 20:59:44 10° SSE
SeaSat 1 2.4 20:49:55 10° NNE 20:54:52 72° ESE 20:59:46 10° SSW
Cosmos 1975 Rocket 4.4 20:51:28 10° NNW 20:55:42 42° W 20:59:52 10° SSW
CZ-2D R/B 4.2 20:52:54 10° S 20:56:39 49° W 21:00:24 10° NNW
Meteor 1-13 Rocket 4.4 20:50:50 10° N 20:56:48 69° E 21:02:42 10° SSE
Cosmos 2151 Rocket 3.5 20:53:25 10° S 20:57:47 78° E 21:02:12 10° N
Meteor 2-4 Rocket 4.0 20:53:21 10° N 20:58:44 49° ENE 21:03:49 12° SSE
Cosmos 44 3.4 20:56:28 10° NW 21:00:52 65° WSW 21:05:15 11° SSE
Lacrosse 5 2.4 20:56:38 10° S 21:01:11 34° SE 21:05:46 10° ENE
NOSS 2-3 (C) 3.9 20:57:23 10° SSW 21:01:52 53° ESE 21:07:00 10° NE
DELTA 2 R/B (1) 4.0 20:58:38 10° W 21:04:03 52° SSW 21:07:58 19° SE
Spot 2 Rocket 3.9 20:59:53 10° S 21:04:56 65° WSW 21:10:01 10° NNW
Cosmos 1140 Rocket 3.6 21:00:04 10° NNW 21:05:20 82° WSW 21:10:34 10° SSE
EXPRESS MD2 3.6 21:03:57 10° WSW 21:06:27 51° NNW 21:10:43 10° NE
Atlas Centaur 2 3.5 21:03:33 10° WSW 21:11:01 39° S 21:15:24 20° SE
Cosmos 614 Rocket 4.0 21:05:58 10° NNW 21:11:05 85° WSW 21:15:49 12° SSE
CZ-4B DEB 3.4 21:16:27 31° E 21:16:38 31° ENE 21:19:14 10° N
Cosmos 1536 Rocket 3.6 21:15:42 10° N 21:20:01 79° W 21:24:04 12° S
Helios 1A 2.9 21:21:40 22° SSE 21:24:17 74° ENE 21:28:33 10° N
Meteor 1-29 3.1 21:23:18 10° NNE 21:26:37 47° E 21:27:14 41° SE
SAR-Lupe-4 4.1 21:27:40 36° E 21:28:16 39° ENE 21:31:39 10° N
ERS-1 Rocket 3.3 21:26:23 28° SE 21:28:41 47° ENE 21:33:30 10° N
Cosmos 1741 Rocket 3.9 21:24:54 10° NNW 21:30:10 88° ENE 21:33:28 24° SSE
H-2A R/B 3.2 21:29:52 22° E 21:31:00 24° ENE 21:34:56 10° NNE
USA 186 4.4 21:30:11 10° SW 21:32:45 20° W 21:35:21 10° NW
BREEZE M DEB (TANK) 3.2 21:24:24 10° SW 21:33:36 47° SSE 21:34:57 33° E
Envisat 4.0 21:29:18 10° S 21:34:07 44° W 21:38:58 10° NNW
Meteor 1-11 Rocket 4.2 21:28:39 10° SSW 21:34:28 65° W 21:40:11 10° N
ATLAS 3B R/B 3.3 21:28:38 10° NNW 21:34:56 39° NE 21:38:06 25° E
GPS 2-05 Rocket1 3.6 21:32:44 10° WSW 21:35:41 35° SSW 21:35:41 35° SSW
NOSS 2-3 (D) 4.1 21:36:59 10° SW 21:41:37 73° NW 21:47:00 10° NNE
SAR-Lupe-1 4.2 21:45:10 54° E 21:45:14 54° ENE 21:48:45 10° N
SL-08 RB Rocket 4.4 21:45:27 35° E 21:46:01 36° ENE 21:50:11 10° N
ARGOS 3.4 21:45:46 37° ESE 21:47:29 52° ENE 21:52:40 10° N
Terra 3.7 21:50:12 16° ENE 21:50:12 16° ENE 21:52:55 10° NNE
Cosmos 2278 Rocket 4.4 21:50:12 10° NNE 21:51:36 11° NE 21:53:00 10° ENE
Cosmos 883 Rocket 4.5 21:45:50 10° N 21:51:58 82° W 21:56:04 22° S
Cosmos 2322 Rocket 3.2 21:47:27 10° SW 21:52:56 47° WNW 21:58:26 10° NNE
Cosmos 2263 Rocket 2.3 21:47:31 10° NNW 21:53:13 75° WSW 21:55:53 33° S
Cosmos 2237 4.5 21:52:58 41° SE 21:53:46 43° ESE 21:59:08 10° NE
Meteor 1-23 Rocket 4.4 21:54:00 10° NNW 21:59:32 68° W 22:02:41 26° S
Cosmos 1844 Rocket 3.8 21:56:08 10° N 22:01:03 29° ENE 22:02:00 27° ENE
Cosmos 1244 Rocket 4.4 21:59:55 36° SSE 22:02:29 66° E 22:08:33 10° NNE
Cosmos 1110 Rocket 3.9 21:58:42 15° SSW 22:03:00 89° ESE 22:08:12 10° NNE
SL-16 R/B 3.6 21:58:27 10° SW 22:03:44 39° WNW 22:09:02 10° N
ATLAS 2AS CENTAUR R/B 3.2 22:00:16 10° SW 22:07:57 77° NW 22:16:07 10° NNE
Cosmos 1515 3.8 22:04:33 10° N 22:07:55 66° NNE 22:07:55 66° NNE
Lacrosse 5 rocket 3.7 22:09:11 10° W 22:10:39 12° WSW 22:11:32 11° SW
Cosmos 2322 3.5 22:08:47 20° SSW 22:12:45 83° ESE 22:18:27 10° NNE
Cosmos 2219 Rocket 3.9 22:16:11 18° ENE 22:16:11 18° ENE 22:17:57 10° NE
Cosmos 1331 Rocket 4.0 22:14:52 24° SSW 22:18:04 76° WNW 22:23:19 10° NNE
Helios 1B rocket 4.3 22:15:33 10° N 22:19:08 29° WNW 22:22:43 10° SW
Cosmos 1238 Rocket 4.0 22:13:07 10° N 22:19:53 73° E 22:21:22 54° SE
MetOp-B 4.3 22:19:54 45° SSW 22:21:28 66° WSW 22:26:48 10° NNW
COSMOS 2428 3.0 22:22:19 49° ENE 22:22:19 49° ENE 22:27:04 10° NNE
Cosmos 1500 3.9 22:24:18 51° N 22:24:18 51° N 22:27:18 10° N
SL-08 R/B 4.5 22:22:32 56° SE 22:23:27 63° E 22:29:41 10° NNE
Cosmos 1607 4.3 22:18:23 10° NW 22:24:44 59° WSW 22:26:39 43° S
Okean 1-7 Rocket 4.3 22:21:29 10° NNW 22:25:49 49° W 22:26:34 44° SW
Cosmos 2360 Rocket 2.6 22:21:17 10° SW 22:26:51 62° WNW 22:32:27 10° NNE
Aureole 3 Rocket 4.3 22:18:24 10° N 22:27:04 79° E 22:28:50 54° SSE
YAOGAN 11 4.2 22:28:58 70° N 22:28:58 70° N 22:32:49 10° NNW
Tiangong 1 4.1 22:26:04 10° WNW 22:26:22 12° WNW 22:26:22 12° WNW
Cosmos 2315 Rocket 4.5 22:22:51 10° NNW 22:28:56 57° W 22:31:52 31° SSW
SPOT 1/Viking Rocket 3.4 22:31:56 81° ESE 22:32:04 82° ENE 22:37:19 10° NNW
Cosmos 1025 Rocket 4.1 22:28:25 10° NNW 22:32:21 37° W 22:32:56 35° WSW
Cosmos 1844 4.4 22:27:42 10° N 22:33:02 39° ENE 22:33:04 39° ENE
Cosmos 2333 Rocket 3.9 22:38:20 19° NE 22:38:20 19° NE 22:40:10 10° NE
SPOT 5 2.9 22:35:22 70° WSW 22:35:29 70° WSW 22:40:14 10° NNW
Cosmos 2333 4.3 22:44:53 61° NE 22:44:53 61° NE 22:49:36 10° NNE
Lacrosse 5 3.1 22:39:17 10° WSW 22:44:05 41° NW 22:48:53 10° NNE
BREEZE-M DEB 4.2 22:41:34 10° WNW 22:46:59 38° N 22:46:59 38° N
Nimbus 7 Rocket 4.3 22:42:14 10° NNE 22:48:08 87° WNW 22:48:39 75° SSW
H-2A R/B 4.0 22:50:04 21° NNE 22:50:04 21° NNE 22:52:02 10° N
Cosmos 1745 Rocket 3.8 22:55:56 87° SSW 22:56:03 89° W 23:02:14 10° N
Cosmos 2237 Rocket 4.2 23:00:29 17° NE 23:00:29 17° NE 23:01:50 10° NE
Atlas Centaur 2 4.1 22:53:49 10° WSW 22:58:01 23° SW 22:58:01 23° SW
NOSS 3-2 (A) 4.0 22:57:46 10° NNW 23:05:18 70° NE 23:06:18 64° E
USA 238 DEB 3.7 22:58:58 10° NW 23:06:01 69° WSW 23:06:30 67° SW
USA 238 3.7 22:59:04 10° NW 23:06:08 70° WSW 23:06:37 68° SW
H-2A R/B 3.0 23:10:30 39° W 23:10:30 39° W 23:14:54 10° NNW
ATLAS 3B R/B 3.3 23:19:26 10° NW 23:25:20 41° WSW 23:25:20 41° WSW
Terra 3.2 23:29:05 36° NW 23:29:05 36° NW 23:32:05 10° NNW
Cosmos 2278 Rocket 3.1 23:31:11 10° NNW 23:35:15 46° N 23:35:15 46° N
NOSS 3-2 (C) 3.9 23:35:28 10° NW 23:42:56 86° N 23:42:56 86° N
Cosmos 1844 Rocket 3.9 23:39:45 10° NW 23:43:39 35° WNW 23:43:39 35° WNW
